Presure
112 139 152 155 161 183 174 162 123 125 170 165 166 179 178 181 184 173 205 200 170 159 201 216 207 198 211 213 216 177 210 144 142 121 121 130 133 132 121 123 126 130 150 153 151 145 193 205 193
184 180 187 189 195 178 168 180 118 174 171 148 171 174 167 182 174 162 185 170 184 203 200 197 194 191 164 198 215 223 223 200 209 212 203 205 219 226 220 215 219 172 217 219 196 243 171 203 199
173 184 190 184 180 166 199 195 192 171 180 172 178 174 175 163 158 173 163 185 150 169 170 189 162 178 197 199 190 188 190 202 206 208 215 213 213 213 220 219 224 232 229 220 228 236 240 241 136
106 170 163 189 186 187 175 182 183 186 172 187 178 172 176 187 174 184 179 160 205 151 196 151 201 191 191 187 198 199 194 206 187 191 205 204 208 203 210 210 212 228 225 218 222 219 218 209 182
176 157 177 169 198 185 193 182 177 189 160 182 189 181 110 171 172 138 186 189 176 184 163 135 162 168 154 176 197 180 182 198 202 200 204 203 196 204 203 207 216 213 216 215 218 221 215 203 199
172 161 183 166 183 186 193 183 168 182 185 175 187 190 179 177 178 178 187 157 161 161 171 145 132 162 151 169 190 199 195 179 192 198 201 202 188 192 198 209 207 211 205 206 205 209 208 215 160
171 131 189 183 176 183 184 189 193 172 185 194 190 197 182 180 170 161 175 177 176 182 138 140 154 174 140 182 198 185 186 187 189 173 173 183 196 165 135 147 187 191 194 209 194 199 199 194 203
176 169 179 192 182 181 178 186 190 190 69 63 183 187 160 189 175 178 178 176 179 168 182 180 182 179 183 135 192 168 179 182 190 191 190 181 178 196 208 189 199 206 176 192 153 206 172 202 204
173 176 181 172 185 190 178 181 187 190 190 185 188 175 193 178 178 179 169 182 178 176 175 180 180 180 180 169 177 136 180 184 176 172 182 186 167 182 196 182 211 194 192 200 185 195 197 178 193
189 179 185 191 175 180 189 184 184 176 186 192 196 177 168 200 168 175 168 210 188 179 183 176 184 176 192 180 181 176 155 187 189 165 180 195 196 171 181 176 151 173 165 193 157 190 180 177 184
180 189 179 186 185 184 196 193 188 195 176 188 182 184 191 176 174 191 168 165 205 156 170 165 184 183 202 216 211 196 196 216 206 197 136 194 206 188 159 171 152 132 187 136 166 188 180 185 173
191 180 190 182 188 181 179 192 192 185 180 189 202 182 184 180 172 184 205 173 202 197 190 192 197 188 208 162 219 174 215 222 169 196 148 206 208 192 172 184 180 171 139 213 210 177 187 187 208
183 191 188 184 182 185 184 182 183 184 197 192 190 186 189 197 193 222 196 193 196 207 204 186 184 198 183 216 197 195 197 223 205 215 218 200 178 189 174 173 192 185 179 160 175 177 179 198 214
188 179 184 173 180 183 185 181 180 189 200 194 190 197 190 204 191 209 197 201 164 178 179 212 205 177 183 166 157 207 171 154 200 212 169 188 161 170 172 176 187 170 154 176 174 193 176 199 188
180 183 179 165 182 186 189 195 186 189 194 190 191 192 199 189 200 192 200 194 194 199 222 166 192 201 201 219 199 190 217 161 170 141 221 176 160 155 124 167 155 186 182 172 173 184 162 171 179
189 186 185 178 190 187 188 181 187 182 189 201 195 197 192 205 199 202 193 200 208 203 201 207 214 204 195 201 184 191 200 191 155 140 148 196 182 175 182 142 151 141 150 176 181 146 177 171 179
177 188 184 190 192 193 192 195 203 191 191 190 195 181 202 192 199 206 202 200 195 198 201 200 199 208 203 197 192 212 204 182 177 196 162 147 142 147 168 181 174 164 132 179 126 161 185 181 150
185 188 183 183 185 183 202 184 204 200 188 191 197 198 199 194 196 196 195 191 188 199 198 197 201 203 201 198 193 187 210 168 172 253 173 171 160 159 162 160 163 157 150 187 157 141 158 136 180
186 178 178 185 197 186 191 178 188 194 196 197 197 195 201 203 206 204 207 209 205 192 189 183 198 197 195 191 184 197 209 195 127 119 185 219 239 164 162 182 184 175 192 168 158 177 211 119 125
180 187 189 195 190 197 194 192 152 100 197 204 200 198 207 215 214 197 190 199 111 133 189 184 187 183 184 189 183 203 191 188 181 197 223 211 217 208 172 161 167 167 181 165 183 197 178 154 149
193 195 193 198 193 204 186 183 176 189 199 207 207 207 219 217 209 207 163 70 156 236 172 162 183 206 241 191 214 231 234 223 222 217 186 191 206 242 179 188 178 172 197 156 152 188 170 185 165
201 199 199 205 197 199 193 189 182 201 197 202 208 214 212 215 221 212 199 222 251 281 322 390 334 303 275 266 203 249 259 228 225 257 205 208 216 208 247 206 169 188 161 169 167 178 179 165 160
194 194 191 193 197 206 202 206 191 197 209 231 176 187 202 217 150 252 298 305 206 162 370 355 289 150 337 168 300 290 267 248 213 250 251 251 188 202 207 222 203 159 163 181 207 186 178 171 198
196 198 202 204 207 211 207 215 129 209 172 103 91 251 243 298 343 390 133 279 346 264 191 152 262 277 282 317 323 286 210 272 232 191 192 257 215 205 205 213 197 235 223 199 194 199 179 196 183
199 204 206 209 212 215 220 219 206 224 189 223 234 336 363 227 213 209 129 227 224 142 161 230 189 242 299 156 166 152 239 225 273 255 270 249 240 238 254 178 212 177 180 213 212 203 164 190 183
205 214 216 219 223 224 226 233 213 212 259 234 351 325 337 303 289 296 283 133 263 84 93 260 279 217 184 163 169 275 265 191 251 307 299 235 269 270 255 241 207 228 183 229 212 182 173 180 167
213 205 213 217 224 209 204 214 217 354 345 354 345 330 300 294 275 275 270 281 141 87 261 266 254 143 267 286 279 222 300 297 159 289 300 304 294 281 275 268 239 234 225 220 240 230 235 190 223
201 208 215 217 221 223 229 325 338 327 323 338 335 317 296 283 282 274 280 263 258 266 190 264 263 258 267 204 257 271 221 294 291 304 247 152 295 286 278 265 268 235 211 220 180 248 213 237 225
218 217 216 211 235 258 325 340 323 311 307 323 323 305 291 290 272 267 278 273 257 263 269 258 277 270 262 142 216 268 283 163 243 308 310 312 317 295 293 235 287 271 231 242 186 221 211 235 231
208 230 234 292 294 301 347 314 295 304 310 313 330 316 282 282 271 283 267 273 262 257 255 276 272 242 261 248 218 279 167 279 280 284 296 308 311 314 315 307 279 258 267 268 264 202 250 265 105
Wind_Speed
44 53 56 55 56 59 56 52 50 56 52 54 58 56 53 49 49 54 52 53 57 56 51 43 47 52 48 49 51 64 58 62 59 58 57 66 68 68 57 61 64 67 63 63 70 72 66 63 63
43 48 51 56 57 59 57 60 49 56 55 60 59 58 56 53 55 61 53 59 56 52 53 53 52 54 58 49 42 40 42 58 52 48 58 58 46 41 47 54 51 63 52 46 52 38 63 50 47
50 44 47 59 64 53 55 57 61 57 59 61 62 62 58 59 65 61 63 55 59 58 57 56 60 57 51 47 55 58 58 51 49 46 41 44 47 45 40 43 41 36 38 42 36 34 34 34 61
49 55 63 52 61 60 59 57 60 60 58 61 67 62 61 61 62 62 61 66 51 65 56 60 54 58 56 56 47 46 53 45 60 55 46 47 46 51 47 45 46 39 38 38 36 38 39 42 55
52 64 60 67 57 60 55 57 58 60 60 60 63 63 50 65 64 58 57 58 60 55 62 53 59 56 58 58 48 58 60 46 46 47 43 47 51 49 48 47 40 39 36 37 36 38 37 39 45
58 62 61 69 63 57 55 57 62 57 58 63 59 61 66 67 65 68 61 68 60 68 60 60 54 62 62 59 53 46 48 53 52 48 47 46 49 50 50 47 45 38 38 36 36 37 37 39 51
60 68 65 67 66 64 60 58 57 60 60 50 57 51 65 68 70 69 72 71 66 65 64 56 65 60 61 57 56 56 52 49 52 54 55 50 44 55 60 54 45 44 40 38 38 36 37 39 39
61 66 69 71 71 68 63 63 60 59 18 17 64 57 70 60 71 72 74 74 75 67 66 63 65 64 65 59 58 55 55 54 52 53 54 47 44 45 52 47 48 43 48 38 48 42 52 37 37
66 69 71 71 75 76 67 64 61 59 57 62 67 69 57 68 68 71 69 79 79 77 72 72 73 71 68 59 60 62 57 57 53 53 52 50 53 40 38 43 45 40 40 38 42 39 31 39 36
81 78 74 75 74 77 76 68 64 63 62 65 62 72 74 56 75 73 79 58 75 79 79 76 77 65 78 70 68 62 60 64 64 61 54 54 46 47 38 49 54 53 43 39 40 36 32 33 34
77 79 70 73 73 74 77 77 70 67 71 66 65 65 62 74 76 59 77 76 61 62 74 65 84 80 76 67 68 70 66 61 62 63 59 55 47 44 69 59 51 54 42 43 41 33 32 43 39
76 77 77 71 73 72 70 75 72 67 77 74 67 67 69 78 82 73 69 75 65 68 72 71 73 88 70 61 60 60 61 58 66 62 68 57 51 42 55 43 49 52 49 43 44 41 40 36 53
77 76 75 73 75 74 71 73 72 78 83 73 72 71 69 74 74 64 72 71 67 62 65 73 79 70 67 59 69 60 52 49 52 61 66 47 44 55 48 52 47 50 38 46 47 53 41 46 52
77 73 75 71 75 72 74 72 75 84 78 76 76 79 79 76 72 67 69 66 82 73 65 62 60 86 74 72 63 55 63 63 41 54 43 40 45 48 51 53 40 46 55 42 44 53 41 42 43
80 78 75 72 79 78 76 74 76 77 78 79 85 86 84 78 76 71 67 69 68 65 63 75 70 65 66 60 71 56 50 60 44 66 54 46 60 62 54 59 48 38 38 46 44 48 44 47 42
86 82 81 79 81 77 74 66 76 78 78 80 80 82 83 86 82 78 72 71 70 68 68 68 70 67 72 72 70 70 64 56 66 68 62 54 47 52 46 51 60 53 58 38 39 50 43 48 43
81 83 81 81 83 83 77 71 79 75 75 77 82 75 84 81 82 83 80 75 73 72 74 76 73 73 74 74 80 75 77 55 62 64 76 68 57 74 60 49 43 56 47 36 58 48 42 44 55
86 84 82 84 85 76 85 67 82 83 81 86 88 89 89 81 84 80 79 77 75 82 79 79 78 76 77 80 81 79 78 75 68 74 72 71 72 66 73 69 66 67 60 43 52 54 50 55 48
86 80 82 88 93 83 82 70 79 83 86 91 89 88 92 93 92 88 90 90 83 77 82 79 87 84 83 85 85 82 83 82 62 62 60 79 76 75 82 54 48 61 39 46 50 67 55 53 52
84 92 91 93 91 90 86 80 57 30 93 96 90 96 100 103 100 84 77 84 25 45 85 84 86 78 75 83 69 83 76 73 54 75 86 76 67 75 75 84 79 75 45 56 52 68 50 62 60
99 97 97 97 93 96 84 73 75 90 93 97 98 98 105 103 97 94 68 19 62 98 69 67 84 96 93 86 88 86 87 80 80 86 53 55 64 77 80 80 81 73 60 64 59 67 56 57 52
98 104 99 98 96 94 94 82 84 95 95 99 101 104 100 104 106 97 79 98 102 98 109 75 97 101 98 95 90 92 101 87 80 92 83 70 83 67 83 86 88 80 80 81 67 67 62 69 63
99 101 99 96 96 98 98 108 86 94 99 107 74 87 99 106 41 111 103 106 62 60 53 60 52 38 86 47 95 100 104 98 86 96 93 90 71 74 68 77 92 74 83 91 84 76 63 74 65
103 103 103 102 101 98 96 111 50 94 70 26 28 109 110 92 75 41 37 39 44 53 52 52 43 53 48 71 78 96 69 105 92 75 65 96 88 85 76 81 78 92 99 97 83 82 71 78 82
102 105 104 103 106 106 106 100 95 103 80 97 101 62 45 41 41 39 50 44 52 46 48 40 45 47 43 41 55 35 66 79 104 99 103 93 89 92 92 79 90 89 81 100 97 91 77 76 82
102 104 107 107 108 109 109 111 96 97 106 97 51 51 35 43 49 39 36 55 36 21 22 42 37 40 48 64 60 56 54 45 52 76 76 89 103 101 94 97 89 90 88 105 91 79 83 78 86
105 97 102 111 112 87 86 95 97 57 57 47 39 37 43 48 55 52 54 40 33 24 48 40 46 57 45 32 30 43 45 55 51 72 76 89 104 102 101 96 95 97 89 83 107 100 113 87 101
94 102 108 111 107 100 98 76 58 55 56 46 37 41 51 54 48 46 38 46 50 52 54 40 40 54 53 50 48 45 50 53 61 63 61 48 91 97 97 94 94 90 86 79 77 108 93 108 95
107 103 107 98 107 92 71 49 48 49 55 48 43 49 53 50 54 51 43 45 54 54 57 45 47 44 34 54 40 44 49 48 48 54 60 64 69 89 93 76 96 92 78 86 71 78 76 95 93
103 108 109 92 83 73 46 42 51 51 50 47 41 45 56 54 55 51 48 49 53 53 42 56 42 46 41 38 49 44 53 37 37 41 45 50 57 65 73 82 88 85 89 90 92 90 91 88 48
Wind_Direction
266 266 268 269 267 274 273 267 270 274 268 267 269 277 274 272 270 264 273 275 264 269 272 277 275 272 277 276 277 269 275 271 273 275 274 272 270 271 276 277 278 277 280 281 278 276 279 282 281
277 274 279 275 274 271 272 276 267 274 272 272 273 271 267 274 268 261 265 263 270 274 273 272 271 272 269 273 278 281 280 277 277 279 278 280 285 289 287 286 288 271 286 288 278 297 279 285 286
272 274 286 276 275 275 278 276 276 276 277 275 274 272 272 262 265 268 266 278 266 266 266 276 262 270 272 273 275 276 276 279 280 281 284 284 283 286 287 286 293 299 299 292 298 302 305 305 279
272 269 273 283 273 277 273 278 279 279 272 273 275 273 277 279 274 280 275 266 273 268 276 265 275 276 274 273 273 275 276 281 278 277 281 283 288 286 288 287 289 308 306 296 302 298 299 298 285
272 275 274 273 286 272 279 275 276 279 272 273 272 277 271 273 273 275 280 280 270 274 267 269 272 272 271 272 273 271 272 282 284 282 283 285 285 290 290 294 298 299 306 306 312 315 312 301 299
275 277 280 273 278 277 280 274 273 273 275 273 273 267 272 274 275 276 274 272 273 267 268 267 270 272 273 272 272 270 272 274 278 284 287 287 284 288 295 298 298 299 297 300 303 308 312 319 275
279 273 284 281 275 278 277 282 280 270 270 265 269 261 268 270 275 275 278 278 277 276 272 271 274 271 270 272 274 272 273 272 278 278 278 280 293 279 271 276 284 291 291 305 295 304 308 301 312
281 279 283 286 281 280 276 283 281 279 267 262 268 261 272 263 271 270 270 275 274 277 273 275 275 276 275 268 273 271 274 275 278 281 283 282 284 300 296 298 297 297 276 292 278 312 282 315 321
284 285 284 280 284 283 277 279 278 279 276 269 259 267 258 264 265 270 275 272 272 273 275 273 275 274 273 272 275 267 276 275 272 275 280 284 273 285 290 283 291 292 288 299 285 303 306 290 320
286 284 283 283 281 284 282 279 277 277 279 276 279 263 266 271 267 262 269 286 266 275 276 277 275 269 275 272 272 273 272 279 279 275 279 283 281 268 270 269 272 275 282 289 278 294 288 292 308
284 286 282 283 281 282 286 284 285 287 273 277 268 276 278 260 259 264 268 275 277 276 279 276 277 278 279 277 272 272 274 272 276 278 270 278 273 269 268 265 268 272 284 271 280 291 282 294 286
285 284 286 285 284 280 282 287 287 288 278 283 286 269 275 267 267 267 285 263 277 267 267 271 275 274 277 258 269 268 273 268 264 269 269 266 265 259 260 260 266 278 266 293 281 284 299 304 311
282 282 282 283 283 282 284 285 290 286 284 288 287 280 281 287 282 283 271 272 272 272 268 272 268 274 272 274 279 261 266 269 267 268 264 261 272 265 268 272 276 271 285 275 286 293 290 302 308
283 281 281 280 281 284 284 286 283 284 292 290 288 291 285 285 278 284 277 278 270 272 272 266 262 272 277 275 271 264 264 263 276 273 254 272 259 259 271 272 276 267 274 290 288 300 289 300 310
282 282 281 277 283 282 284 287 284 286 289 289 289 288 287 280 285 277 279 277 274 278 275 276 264 259 261 262 269 267 254 252 257 265 270 250 251 260 266 265 264 265 272 264 275 298 278 282 297
281 282 283 281 283 281 283 280 286 287 288 286 284 284 283 285 282 280 276 278 279 275 273 271 270 261 259 259 272 271 265 253 253 270 262 250 254 261 259 262 263 263 266 267 281 265 285 280 300
282 285 284 286 284 285 285 288 286 284 285 284 284 280 279 277 282 286 283 281 278 277 275 272 267 267 263 259 263 259 262 247 245 245 252 264 256 267 256 249 263 268 258 253 267 261 274 272 277
279 280 281 283 284 283 286 284 288 286 282 282 281 282 281 277 279 278 276 274 276 278 274 271 271 266 261 260 260 263 257 254 261 247 241 251 254 256 257 262 253 264 265 267 264 262 272 271 268
278 279 279 281 283 281 286 281 282 283 284 281 280 278 281 281 279 278 278 276 270 268 271 272 274 268 262 258 257 257 261 261 260 268 243 244 238 246 253 231 224 252 252 260 262 253 262 279 276
280 280 281 280 281 282 280 280 280 270 280 282 282 282 284 282 279 274 267 268 260 268 265 267 267 266 264 262 259 260 262 263 250 263 252 257 243 233 234 252 250 256 244 261 276 259 249 272 274
278 280 279 281 281 282 278 278 276 280 282 284 282 280 283 281 279 278 275 266 274 273 265 257 270 267 263 269 268 265 260 257 254 256 244 249 255 238 226 227 238 248 210 271 262 247 262 263 258
282 279 280 280 281 281 283 278 279 283 281 281 283 283 282 282 283 279 277 278 279 278 274 266 262 260 257 255 269 251 253 251 257 254 255 252 251 246 236 233 241 232 259 259 261 258 261 260 260
277 277 279 280 281 281 283 281 279 279 280 283 281 280 281 283 268 283 281 278 256 264 254 261 264 260 250 263 247 245 246 247 251 250 252 251 227 244 244 239 233 258 254 251 240 253 250 256 243
278 279 280 280 281 282 279 281 271 279 277 264 267 283 283 283 278 275 249 264 258 257 262 269 260 264 254 251 252 246 249 244 241 247 255 249 243 241 243 245 230 238 236 242 247 249 249 243 256
275 277 279 280 281 282 281 282 281 283 284 286 287 281 271 253 260 255 249 256 266 260 262 259 255 251 255 243 271 247 253 249 248 248 244 244 248 242 242 236 240 238 237 241 241 245 252 248 254
277 278 279 281 281 281 284 286 283 285 290 289 278 277 248 247 257 247 235 238 263 244 256 257 262 261 249 261 268 253 253 256 255 249 244 246 244 243 242 236 240 241 242 236 243 237 242 237 251
275 279 281 281 281 281 280 285 288 285 285 280 272 260 235 240 255 257 260 252 260 256 258 257 256 261 266 258 258 261 259 252 251 245 244 245 243 242 242 241 236 241 247 245 238 242 242 247 249
280 280 280 281 283 286 287 293 285 282 284 282 262 240 235 246 243 251 240 257 264 266 257 263 248 251 249 257 252 262 249 260 248 246 246 253 243 244 243 243 243 242 242 246 247 241 244 245 248
278 279 281 283 287 292 295 287 283 279 279 276 262 234 232 232 254 253 242 233 253 251 257 262 246 248 259 250 274 272 274 245 263 262 257 251 248 245 245 249 246 246 250 247 243 249 252 246 249
279 281 282 293 294 296 287 281 279 277 279 282 266 250 240 234 250 233 258 242 246 255 274 263 258 260 267 265 269 266 243 265 265 262 259 258 254 249 247 248 247 248 248 249 247 239 250 249 271